Date String (YYYY-MM-DD hh:mm:ss) UTC,Instrument flags,Ambient pressure (hPa),Sample flow (lpm),Bypass flow (lpm),Sample temperature (°C),Ambient temperature (°C),ASC tube jacket temperature (°C),LED temperature (°C),Box temperature (°C),Sample RH (%),Span deviation,Mass concentration (μg/m³),Mass concentration (μg/m³),Mass concentration (μg/m³)
DateTimeUTC,F1_M11,P_M11,Q1_M11,Q2_M11,T1_M11,T2_M11,T3_M11,T4_M11,T5_M11,U1_M11,ZSPAN_M11,X0_M11,X2_M11,X1_M11
2022-03-20 02:00:00,,0822.9,4.99,0.00,27.2,26.3,00.0,36.2,29.0,08.9,0000.0,0014.48,0004.78,0003.16
2022-03-20 02:01:00,,0822.8,5.00,0.00,27.2,26.3,00.0,36.2,29.0,08.8,0000.0,0013.30,0004.76,0003.16
2022-03-20 02:02:00,,0822.9,5.00,0.00,27.2,26.3,00.0,36.2,29.0,08.9,0000.0,0012.56,0004.75,0003.15
2022-03-20 02:03:00,,0822.9,5.01,0.00,27.2,26.3,00.0,36.2,29.0,08.8,0000.0,0012.44,0004.76,0003.13
2022-03-20 02:04:00,,0822.9,5.00,0.00,27.2,26.3,00.0,36.2,29.0,08.9,0000.0,0012.40,0004.78,0003.14
2022-03-20 02:05:00,,0822.8,5.00,0.00,27.2,26.3,00.0,36.2,29.0,08.8,0000.0,0012.72,0004.79,0003.13
2022-03-20 02:06:00,,0822.8,4.99,0.00,27.2,26.3,00.0,36.2,29.0,08.8,0000.0,0013.19,0004.86,0003.14
2022-03-20 02:07:00,,0822.8,4.99,0.00,27.2,26.3,00.0,36.2,29.0,08.8,0000.0,0013.08,0004.82,0003.13
2022-03-20 02:08:00,,0822.7,5.00,0.00,27.2,26.3,00.0,36.2,29.0,08.7,0000.0,0013.08,0004.83,0003.12
2022-03-20 02:09:00,,0822.7,5.00,0.00,27.2,26.3,00.0,36.2,29.0,08.7,0000.0,0013.19,0004.84,0003.12
2022-03-20 02:10:00,,0822.8,5.00,0.00,27.2,26.3,00.0,36.2,29.0,08.7,0000.0,0012.26,0004.79,0003.13
2022-03-20 02:11:00,,0822.7,4.99,0.00,27.2,26.3,00.0,36.2,29.0,08.7,0000.0,0012.39,0004.83,0003.14
2022-03-20 02:12:00,,0822.7,5.00,0.00,27.2,26.3,00.0,36.2,29.0,08.6,0000.0,0012.36,0004.83,0003.15
2022-03-20 02:13:00,,0822.7,5.00,0.00,27.2,26.3,00.0,36.2,29.0,08.6,0000.0,0012.15,0004.81,0003.17
2022-03-20 02:14:00,,0822.7,5.01,0.00,27.2,26.3,00.0,36.2,29.0,08.7,0000.0,0011.98,0004.78,0003.18
2022-03-20 02:15:00,,0822.7,5.00,0.00,27.2,26.3,00.0,36.2,29.0,08.7,0000.0,0012.02,0004.80,0003.18
2022-03-20 02:16:00,,0822.7,4.99,0.00,27.2,26.3,00.0,36.2,29.0,08.7,0000.0,0011.92,0004.79,0003.18
2022-03-20 02:17:00,,0822.6,5.00,0.00,27.2,26.3,00.0,36.2,29.0,08.8,0000.0,0012.11,0004.74,0003.18
2022-03-20 02:18:00,,0822.6,5.02,0.00,27.2,26.3,00.0,36.2,29.0,08.8,0000.0,0012.34,0004.78,0003.19
2022-03-20 02:19:00,,0822.6,5.00,0.00,27.2,26.3,00.0,36.2,29.0,08.8,0000.0,0012.34,0004.73,0003.21
2022-03-20 02:20:00,,0822.6,5.00,0.00,27.2,26.3,00.0,36.2,29.0,08.8,0000.0,0012.09,0004.69,0003.21
2022-03-20 02:21:00,,0822.6,4.99,0.00,27.2,26.3,00.0,36.2,29.0,08.9,0000.0,0012.01,0004.71,0003.21
2022-03-20 02:22:00,,0822.6,5.02,0.00,27.2,26.3,00.0,36.2,28.9,08.9,0000.0,0011.94,0004.68,0003.21
2022-03-20 02:23:00,,0822.6,5.00,0.00,27.2,26.3,00.0,36.2,29.0,08.9,0000.0,0011.96,0004.67,0003.21
2022-03-20 02:24:00,,0822.6,4.99,0.00,27.2,26.3,00.0,36.2,29.0,09.0,0000.0,0012.07,0004.69,0003.19
2022-03-20 02:25:00,,0822.6,5.01,0.00,27.2,26.3,00.0,36.2,28.9,09.0,0000.0,0012.35,0004.74,0003.19
2022-03-20 02:26:00,,0822.6,5.00,0.00,27.2,26.3,00.0,36.2,28.9,09.0,0000.0,0013.47,0004.74,0003.19
2022-03-20 02:27:00,,0822.7,4.99,0.00,27.2,26.3,00.0,36.2,28.9,08.9,0000.0,0013.45,0004.79,0003.20
2022-03-20 02:28:00,,0822.6,4.99,0.00,27.2,26.3,00.0,36.2,28.9,09.0,0000.0,0012.63,0004.77,0003.21
2022-03-20 02:29:00,,0822.7,5.01,0.00,27.2,26.3,00.0,36.2,28.9,09.0,0000.0,0012.08,0004.77,0003.21
2022-03-20 02:30:00,,0822.7,4.99,0.00,27.2,26.2,00.0,36.2,28.9,09.1,0000.0,0011.82,0004.77,0003.20
2022-03-20 02:31:00,,0822.6,5.01,0.00,27.2,26.2,00.0,36.2,28.9,09.1,0000.0,0011.84,0004.80,0003.20
2022-03-20 02:32:00,,0822.7,5.00,0.00,27.2,26.2,00.0,36.2,28.9,09.1,0000.0,0011.99,0004.78,0003.19
2022-03-20 02:33:00,,0822.7,4.99,0.00,27.2,26.2,00.0,36.2,28.9,09.1,0000.0,0012.20,0004.81,0003.19
2022-03-20 02:34:00,,0822.7,5.01,0.00,27.1,26.2,00.0,36.2,28.9,09.1,0000.0,0012.34,0004.79,0003.18
2022-03-20 02:35:00,,0822.7,5.01,0.00,27.1,26.2,00.0,36.2,28.9,09.1,0000.0,0012.45,0004.77,0003.19
2022-03-20 02:36:00,,0822.7,5.00,0.00,27.2,26.2,00.0,36.2,28.9,09.2,0000.0,0012.35,0004.75,0003.19
2022-03-20 02:37:00,,0822.7,4.99,0.00,27.2,26.2,00.0,36.2,28.9,09.2,0000.0,0011.53,0004.75,0003.18
2022-03-20 02:38:00,,0822.6,5.00,0.00,27.1,26.2,00.0,36.2,28.8,09.2,0000.0,0011.48,0004.77,0003.19
2022-03-20 02:39:00,,0822.6,4.99,0.00,27.1,26.2,00.0,36.1,28.8,09.3,0000.0,0011.60,0004.78,0003.19
2022-03-20 02:40:00,,0822.6,4.99,0.00,27.1,26.2,00.0,36.1,28.8,09.3,0000.0,0011.64,0004.78,0003.20
2022-03-20 02:41:00,,0822.7,5.02,0.00,27.1,26.2,00.0,36.2,28.8,09.3,0000.0,0011.78,0004.82,0003.22
2022-03-20 02:42:00,,0822.6,5.00,0.00,27.1,26.1,00.0,36.1,28.8,09.3,0000.0,0011.83,0004.83,0003.22
2022-03-20 02:43:00,,0822.5,4.99,0.00,27.1,26.1,00.0,36.1,28.8,09.3,0000.0,0011.59,0004.85,0003.24
2022-03-20 02:44:00,,0822.5,4.99,0.00,27.1,26.1,00.0,36.1,28.8,09.3,0000.0,0011.49,0004.84,0003.24
2022-03-20 02:45:00,,0822.5,5.01,0.00,27.1,26.1,00.0,36.1,28.8,09.2,0000.0,0011.75,0004.81,0003.24
2022-03-20 02:46:00,,0822.5,5.01,0.00,27.1,26.1,00.0,36.1,28.8,09.2,0000.0,0011.63,0004.86,0003.25
2022-03-20 02:47:00,,0822.5,5.01,0.00,27.1,26.1,00.0,36.1,28.8,09.3,0000.0,0011.55,0004.83,0003.25
2022-03-20 02:48:00,,0822.5,5.00,0.00,27.1,26.1,00.0,36.1,28.8,09.3,0000.0,0011.32,0004.82,0003.24
2022-03-20 02:49:00,,0822.5,4.99,0.00,27.1,26.1,00.0,36.1,28.8,09.2,0000.0,0011.09,0004.78,0003.24
2022-03-20 02:50:00,,0822.5,4.99,0.00,27.1,26.1,00.0,36.1,28.8,09.2,0000.0,0011.07,0004.80,0003.23
2022-03-20 02:51:00,,0822.6,5.00,0.00,27.0,26.1,00.0,36.1,28.7,09.3,0000.0,0011.14,0004.78,0003.22
2022-03-20 02:52:00,,0822.5,5.00,0.00,27.0,26.1,00.0,36.1,28.7,09.4,0000.0,0010.99,0004.75,0003.21
2022-03-20 02:53:00,,0822.6,5.00,0.00,27.0,26.0,00.0,36.1,28.7,09.4,0000.0,0010.87,0004.72,0003.21
2022-03-20 02:54:00,,0822.6,5.01,0.00,27.0,26.0,00.0,36.1,28.7,09.4,0000.0,0011.14,0004.72,0003.20
2022-03-20 02:55:00,,0822.5,4.99,0.00,27.0,26.0,00.0,36.1,28.7,09.4,0000.0,0011.48,0004.66,0003.20
2022-03-20 02:56:00,,0822.5,5.00,0.00,27.0,26.0,00.0,36.0,28.7,09.4,0000.0,0010.80,0004.66,0003.20
2022-03-20 02:57:00,,0822.5,4.99,0.00,27.0,25.9,00.0,36.0,28.6,09.5,0000.0,0011.01,0004.74,0003.22
2022-03-20 02:58:00,,0822.4,5.00,0.00,27.0,25.9,00.0,36.0,28.7,09.5,0000.0,0011.11,0004.80,0003.23
2022-03-20 02:59:00,,0822.4,5.00,0.00,27.0,25.9,00.0,36.0,28.6,09.4,0000.0,0011.25,0004.83,0003.25
